User: anonymous   Login
Location: Unspecified
(0.0000°N, 0.0000°E)
Time: 23:44:19
(UTC+02:00)
Language:

ARIANE 5 R/B - Orbit

View from above orbital plane
View from above orbital plane
View from above satellite
View from above satellite

Ground track
Ground track

The orbit data is extracted from the following two-line orbital elements,

1 29646U 06054D   16241.56433746 +.00005839 +00000-0 +12854-2 0  9991
2 29646 002.8149 095.5162 7112545 052.2358 353.1355 02.50135504084384
Epoch (UTC): 28 August 2016 13:32:38
Eccentricity: 0.7112545
inclination: 2.8149°
perigee height: 241 km
apogee height: 32850 km
right ascension of ascending node: 95.5162°
argument of perigee: 52.2358°
revolutions per day: 2.50135504
mean anomaly at epoch: 353.1355°
orbit number at epoch: 8438

The dashed part of the orbit path shows where the satellite is in the earth's shadow,  

DLR